Starlink 30862

operational
NORAD ID: 59032 Int'l Des: 2024-038 Owner: SPXS Country: US Constellation: starlink
LEOCIRCULAR

Starlink 30862について

説明を読み込み中...

リアルタイム位置

3D地球を読み込み中...

次回通過

高度履歴

Altitude vs Time

uPlot chart will show altitude changes over time

軌道要素

1 59032U 24038K 25351.69244253 .00001611 00000-0 68027-4 0 9993
2 59032 43.0040 119.2481 0001922 274.5850 85.4782 15.27600626102230
Epoch: Dec 17, 2025 • Age: 20 hours

現在のステータス

高度 488.3 km
速度 7.62 km/s
衛星直下点 -24.28°S, 50.06°E
打ち上げ日 Feb 25, 2024
運用期間 1.8 years
タイプ internet

技術仕様

分類 Payload
質量 730.00 kg
乾燥質量 700.00 kg
総質量 730.00 kg
長さ 0.30 m
直径 4.10 m
スパン 29.00 m
形状 Box + pan
製造者 SPXS
バスタイプ Starlink V2M
フェーズステータス In Orbit
所有者/国 SPXS/US

大規模コンステレーション

Loading constellations...